"Sample Date","Sample Time","Sample Value","Units","Flow Rate","Number Channels","Micron Size 0","Counts/Channel 0","Micron Size 1","Counts/Channel 1","Micron Size 2","Counts/Channel 2","Micron Size 3","Counts/Channel 3","Micron Size 4","Counts/Channel 4","Micron Size 5","Counts/Channel 5","Micron Size 6","Counts/Channel 6","Micron Size 7","Counts/Channel 7","Micron Size 8","Counts/Channel 8","Micron Size 9","Counts/Channel 9","Micron Size 10","Counts/Channel 10","Micron Size 11","Counts/Channel 11","Micron Size 12","Counts/Channel 12","Micron Size 13","Counts/Channel 13","Micron Size 14","Counts/Channel 14","Micron Size 15","Counts/Channel 15","Micron Size 16","Counts/Channel 16","Micron Size 17","Counts/Channel 17","Micron Size 18","Counts/Channel 18","Micron Size 19","Counts/Channel 19","Micron Size 20","Counts/Channel 20","Micron Size 21","Counts/Channel 21","Micron Size 22","Counts/Channel 22","Micron Size 23","Counts/Channel 23","Micron Size 24","Counts/Channel 24","Micron Size 25","Counts/Channel 25","Micron Size 26","Counts/Channel 26","Micron Size 27","Counts/Channel 27","Micron Size 28","Counts/Channel 28","Micron Size 29","Counts/Channel 29","Micron Size 30","Counts/Channel 30","Micron Size 31","Counts/Channel 31"
"05/11/08","09:00:04",2690.000,"cc",28325.750,6,0.100,2245.000,0.200,386.000,0.300,53.000,0.500,6.000,1.000,0,5.000,0
"05/11/08","09:00:10",2724.000,"cc",28324.174,6,0.100,2319.000,0.200,361.000,0.300,36.000,0.500,8.000,1.000,0,5.000,0
"05/11/08","09:00:16",2412.000,"cc",28411.797,6,0.100,2014.000,0.200,338.000,0.300,48.000,0.500,11.000,1.000,1.000,5.000,0
"05/11/08","09:00:22",2952.000,"cc",28303.065,6,0.100,2531.000,0.200,372.000,0.300,41.000,0.500,8.000,1.000,0,5.000,0
"05/11/08","09:00:28",2664.000,"cc",28296.332,6,0.100,2268.000,0.200,336.000,0.300,52.000,0.500,8.000,1.000,0,5.000,0
"05/11/08","09:00:34",2589.000,"cc",28336.287,6,0.100,2212.000,0.200,335.000,0.300,37.000,0.500,5.000,1.000,0,5.000,0
"05/11/08","09:00:40",3213.000,"cc",28306.248,6,0.100,2693.000,0.200,460.000,0.300,50.000,0.500,9.000,1.000,1.000,5.000,0
"05/11/08","09:00:46",4763.000,"cc",28374.990,6,0.100,4048.000,0.200,634.000,0.300,70.000,0.500,11.000,1.000,0,5.000,0
"05/11/08","09:00:52",2665.000,"cc",28311.982,6,0.100,2264.000,0.200,357.000,0.300,36.000,0.500,7.000,1.000,1.000,5.000,0
"05/11/08","09:00:58",2431.000,"cc",28330.180,6,0.100,2079.000,0.200,309.000,0.300,37.000,0.500,6.000,1.000,0,5.000,0
"05/11/08","09:01:04",2743.000,"cc",28291.356,6,0.100,2289.000,0.200,400.000,0.300,42.000,0.500,12.000,1.000,0,5.000,0
"05/11/08","09:01:10",2283.000,"cc",28307.295,6,0.100,1940.000,0.200,302.000,0.300,37.000,0.500,4.000,1.000,0,5.000,0
"05/11/08","09:01:16",2808.000,"cc",28305.066,6,0.100,2336.000,0.200,403.000,0.300,58.000,0.500,10.000,1.000,1.000,5.000,0
"05/11/08","09:01:22",2677.000,"cc",28327.994,6,0.100,2249.000,0.200,371.000,0.300,47.000,0.500,9.000,1.000,1.000,5.000,0
"05/11/08","09:01:28",2373.000,"cc",28306.830,6,0.100,1964.000,0.200,352.000,0.300,45.000,0.500,12.000,1.000,0,5.000,0
"05/11/08","09:01:34",3148.000,"cc",28306.744,6,0.100,2624.000,0.200,450.000,0.300,58.000,0.500,14.000,1.000,2.000,5.000,0
"05/11/08","09:01:40",2912.000,"cc",28362.486,6,0.100,2477.000,0.200,393.000,0.300,32.000,0.500,10.000,1.000,0,5.000,0
"05/11/08","09:01:46",4201.000,"cc",28303.199,6,0.100,3569.000,0.200,562.000,0.300,59.000,0.500,10.000,1.000,1.000,5.000,0
"05/11/08","09:01:52",3519.000,"cc",28315.586,6,0.100,2996.000,0.200,458.000,0.300,58.000,0.500,7.000,1.000,0,5.000,0
"05/11/08","09:01:58",4258.000,"cc",28334.662,6,0.100,3611.000,0.200,584.000,0.300,48.000,0.500,12.000,1.000,3.000,5.000,0
"05/11/08","09:02:04",3544.000,"cc",28306.102,6,0.100,2992.000,0.200,472.000,0.300,68.000,0.500,11.000,1.000,1.000,5.000,0
"05/11/08","09:02:10",4994.000,"cc",28335.502,6,0.100,4272.000,0.200,660.000,0.300,56.000,0.500,5.000,1.000,1.000,5.000,0
"05/11/08","09:02:16",4728.000,"cc",28282.693,6,0.100,4073.000,0.200,606.000,0.300,44.000,0.500,4.000,1.000,1.000,5.000,0
"05/11/08","09:02:22",5912.000,"cc",28335.770,6,0.100,5022.000,0.200,802.000,0.300,72.000,0.500,15.000,1.000,1.000,5.000,0
"05/11/08","09:02:28",7504.000,"cc",28297.731,6,0.100,6353.000,0.200,1052.000,0.300,89.000,0.500,10.000,1.000,0,5.000,0
"05/11/08","09:02:34",4476.000,"cc",28327.475,6,0.100,3819.000,0.200,582.000,0.300,66.000,0.500,8.000,1.000,1.000,5.000,0
"05/11/08","09:02:40",5569.000,"cc",28336.709,6,0.100,4758.000,0.200,731.000,0.300,75.000,0.500,5.000,1.000,0,5.000,0
"05/11/08","09:02:46",5015.000,"cc",28291.332,6,0.100,4256.000,0.200,675.000,0.300,71.000,0.500,12.000,1.000,1.000,5.000,0
"05/11/08","09:02:52",4360.000,"cc",28293.299,6,0.100,3664.000,0.200,608.000,0.300,72.000,0.500,15.000,1.000,1.000,5.000,0
"05/11/08","09:02:58",5281.000,"cc",28331.949,6,0.100,4518.000,0.200,701.000,0.300,59.000,0.500,3.000,1.000,0,5.000,0
"05/11/08","09:03:04",5638.000,"cc",28286.371,6,0.100,4803.000,0.200,759.000,0.300,63.000,0.500,12.000,1.000,1.000,5.000,0
"05/11/08","09:03:10",5515.000,"cc",28338.600,6,0.100,4722.000,0.200,737.000,0.300,52.000,0.500,4.000,1.000,0,5.000,0
"05/11/08","09:03:16",5969.000,"cc",28319.320,6,0.100,5082.000,0.200,824.000,0.300,60.000,0.500,3.000,1.000,0,5.000,0
"05/11/08","09:03:22",9266.000,"cc",28323.637,6,0.100,7943.000,0.200,1225.000,0.300,89.000,0.500,8.000,1.000,1.000,5.000,0
"05/11/08","09:03:28",5105.000,"cc",28296.912,6,0.100,4387.000,0.200,648.000,0.300,63.000,0.500,7.000,1.000,0,5.000,0
"05/11/08","09:03:34",3906.000,"cc",28367.451,6,0.100,3276.000,0.200,580.000,0.300,45.000,0.500,5.000,1.000,0,5.000,0
"05/11/08","09:03:40",4928.000,"cc",28273.084,6,0.100,4181.000,0.200,682.000,0.300,60.000,0.500,5.000,1.000,0,5.000,0
"05/11/08","09:03:46",6066.000,"cc",28304.352,6,0.100,5195.000,0.200,815.000,0.300,50.000,0.500,6.000,1.000,0,5.000,0
"05/11/08","09:03:52",5317.000,"cc",28332.514,6,0.100,4568.000,0.200,688.000,0.300,55.000,0.500,6.000,1.000,0,5.000,0
"05/11/08","09:03:58",3467.000,"cc",28326.988,6,0.100,2947.000,0.200,464.000,0.300,48.000,0.500,8.000,1.000,0,5.000,0
"05/11/08","09:04:04",6746.000,"cc",28314.715,6,0.100,5708.000,0.200,932.000,0.300,94.000,0.500,12.000,1.000,0,5.000,0
"05/11/08","09:04:10",4558.000,"cc",28319.850,6,0.100,3866.000,0.200,634.000,0.300,55.000,0.500,3.000,1.000,0,5.000,0
"05/11/08","09:04:16",4283.000,"cc",28324.463,6,0.100,3618.000,0.200,609.000,0.300,47.000,0.500,9.000,1.000,0,5.000,0
"05/11/08","09:04:22",6222.000,"cc",28271.342,6,0.100,5282.000,0.200,852.000,0.300,75.000,0.500,13.000,1.000,0,5.000,0
"05/11/08","09:04:28",4644.000,"cc",28327.525,6,0.100,3948.000,0.200,636.000,0.300,55.000,0.500,4.000,1.000,1.000,5.000,0
"05/11/08","09:04:34",4590.000,"cc",28300.137,6,0.100,3929.000,0.200,599.000,0.300,54.000,0.500,8.000,1.000,0,5.000,0
"05/11/08","09:04:40",5303.000,"cc",28342.426,6,0.100,4503.000,0.200,736.000,0.300,53.000,0.500,10.000,1.000,1.000,5.000,0
"05/11/08","09:04:46",4098.000,"cc",28325.772,6,0.100,3481.000,0.200,556.000,0.300,57.000,0.500,4.000,1.000,0,5.000,0
"05/11/08","09:04:52",3741.000,"cc",28327.861,6,0.100,3173.000,0.200,512.000,0.300,51.000,0.500,5.000,1.000,0,5.000,0
"05/11/08","09:04:58",5287.000,"cc",28274.551,6,0.100,4464.000,0.200,739.000,0.300,74.000,0.500,10.000,1.000,0,5.000,0
"05/11/08","09:05:04",3480.000,"cc",28323.734,6,0.100,2967.000,0.200,467.000,0.300,43.000,0.500,2.000,1.000,1.000,5.000,0
"05/11/08","09:05:10",3316.000,"cc",28349.344,6,0.100,2795.000,0.200,462.000,0.300,55.000,0.500,4.000,1.000,0,5.000,0
"05/11/08","09:05:16",3146.000,"cc",28361.898,6,0.100,2647.000,0.200,458.000,0.300,36.000,0.500,5.000,1.000,0,5.000,0
"05/11/08","09:05:22",4208.000,"cc",28306.494,6,0.100,3601.000,0.200,536.000,0.300,60.000,0.500,11.000,1.000,0,5.000,0
"05/11/08","09:05:28",5433.000,"cc",28344.266,6,0.100,4608.000,0.200,756.000,0.300,59.000,0.500,10.000,1.000,0,5.000,0
"05/11/08","09:05:34",5330.000,"cc",28307.520,6,0.100,4563.000,0.200,699.000,0.300,62.000,0.500,6.000,1.000,0,5.000,0
"05/11/08","09:05:40",5516.000,"cc",28263.190,6,0.100,4719.000,0.200,729.000,0.300,61.000,0.500,7.000,1.000,0,5.000,0
"05/11/08","09:05:46",6166.000,"cc",28336.482,6,0.100,5313.000,0.200,773.000,0.300,69.000,0.500,11.000,1.000,0,5.000,0
"05/11/08","09:05:52",5866.000,"cc",28334.584,6,0.100,4997.000,0.200,794.000,0.300,63.000,0.500,11.000,1.000,1.000,5.000,0
"05/11/08","09:05:58",4981.000,"cc",28307.559,6,0.100,4239.000,0.200,674.000,0.300,55.000,0.500,11.000,1.000,2.000,5.000,0
"05/11/08","09:06:04",6716.000,"cc",28359.022,6,0.100,5782.000,0.200,833.000,0.300,91.000,0.500,10.000,1.000,0,5.000,0
"05/11/08","09:06:10",7197.000,"cc",28257.008,6,0.100,6165.000,0.200,955.000,0.300,63.000,0.500,13.000,1.000,1.000,5.000,0
"05/11/08","09:06:16",5246.000,"cc",28272.799,6,0.100,4556.000,0.200,619.000,0.300,56.000,0.500,14.000,1.000,1.000,5.000,0
"05/11/08","09:06:22",4330.000,"cc",28282.832,6,0.100,3673.000,0.200,601.000,0.300,48.000,0.500,8.000,1.000,0,5.000,0
"05/11/08","09:06:28",10008.000,"cc",28323.805,6,0.100,8758.000,0.200,1169.000,0.300,76.000,0.500,5.000,1.000,0,5.000,0
"05/11/08","09:06:34",7752.000,"cc",28340.193,6,0.100,6770.000,0.200,926.000,0.300,51.000,0.500,5.000,1.000,0,5.000,0
"05/11/08","09:06:40",10557.000,"cc",28364.586,6,0.100,9183.000,0.200,1288.000,0.300,76.000,0.500,10.000,1.000,0,5.000,0
"05/11/08","09:06:46",10909.000,"cc",28318.647,6,0.100,9531.000,0.200,1292.000,0.300,76.000,0.500,9.000,1.000,1.000,5.000,0
"05/11/08","09:06:52",11079.000,"cc",28255.994,6,0.100,9700.000,0.200,1291.000,0.300,79.000,0.500,7.000,1.000,2.000,5.000,0
"05/11/08","09:06:58",8930.000,"cc",28387.490,6,0.100,7789.000,0.200,1062.000,0.300,73.000,0.500,6.000,1.000,0,5.000,0
"05/11/08","09:07:04",6905.000,"cc",28286.856,6,0.100,5958.000,0.200,874.000,0.300,67.000,0.500,6.000,1.000,0,5.000,0
"05/11/08","09:07:10",7532.000,"cc",28316.639,6,0.100,6526.000,0.200,925.000,0.300,73.000,0.500,8.000,1.000,0,5.000,0
"05/11/08","09:07:16",11432.000,"cc",28355.039,6,0.100,9918.000,0.200,1401.000,0.300,93.000,0.500,20.000,1.000,0,5.000,0
"05/11/08","09:07:22",8911.000,"cc",28263.668,6,0.100,7693.000,0.200,1115.000,0.300,86.000,0.500,17.000,1.000,0,5.000,0
"05/11/08","09:07:28",9648.000,"cc",28270.273,6,0.100,8344.000,0.200,1220.000,0.300,72.000,0.500,12.000,1.000,0,5.000,0
"05/11/08","09:07:34",7435.000,"cc",28349.645,6,0.100,6420.000,0.200,944.000,0.300,60.000,0.500,11.000,1.000,0,5.000,0
"05/11/08","09:07:40",7168.000,"cc",28316.606,6,0.100,6191.000,0.200,894.000,0.300,75.000,0.500,7.000,1.000,1.000,5.000,0
"05/11/08","09:07:46",5312.000,"cc",28372.752,6,0.100,4550.000,0.200,697.000,0.300,54.000,0.500,11.000,1.000,0,5.000,0
"05/11/08","09:07:52",8706.000,"cc",28325.621,6,0.100,7582.000,0.200,1053.000,0.300,64.000,0.500,7.000,1.000,0,5.000,0
"05/11/08","09:07:58",8283.000,"cc",28305.063,6,0.100,7269.000,0.200,953.000,0.300,57.000,0.500,4.000,1.000,0,5.000,0
"05/11/08","09:08:04",8369.000,"cc",28263.268,6,0.100,7273.000,0.200,1031.000,0.300,60.000,0.500,5.000,1.000,0,5.000,0
"05/11/08","09:08:10",11201.000,"cc",28370.121,6,0.100,9821.000,0.200,1292.000,0.300,75.000,0.500,13.000,1.000,0,5.000,0
"05/11/08","09:08:16",14366.000,"cc",28337.158,6,0.100,12553.000,0.200,1706.000,0.300,93.000,0.500,13.000,1.000,1.000,5.000,0
"05/11/08","09:08:22",7716.000,"cc",28316.920,6,0.100,6673.000,0.200,969.000,0.300,67.000,0.500,6.000,1.000,1.000,5.000,0
"05/11/08","09:08:28",6249.000,"cc",28271.990,6,0.100,5378.000,0.200,823.000,0.300,39.000,0.500,9.000,1.000,0,5.000,0
"05/11/08","09:08:34",7212.000,"cc",28306.229,6,0.100,6231.000,0.200,909.000,0.300,65.000,0.500,7.000,1.000,0,5.000,0
"05/11/08","09:08:40",5996.000,"cc",28339.320,6,0.100,5238.000,0.200,702.000,0.300,47.000,0.500,9.000,1.000,0,5.000,0
"05/11/08","09:08:46",6315.000,"cc",28326.377,6,0.100,5449.000,0.200,801.000,0.300,57.000,0.500,8.000,1.000,0,5.000,0
"05/11/08","09:08:52",5343.000,"cc",28255.176,6,0.100,4634.000,0.200,638.000,0.300,57.000,0.500,14.000,1.000,0,5.000,0
"05/11/08","09:08:58",7952.000,"cc",28324.986,6,0.100,6925.000,0.200,947.000,0.300,69.000,0.500,10.000,1.000,1.000,5.000,0
"05/11/08","09:09:04",6640.000,"cc",28383.529,6,0.100,5767.000,0.200,806.000,0.300,54.000,0.500,12.000,1.000,1.000,5.000,0
"05/11/08","09:09:10",6541.000,"cc",28296.361,6,0.100,5585.000,0.200,870.000,0.300,72.000,0.500,14.000,1.000,0,5.000,0
"05/11/08","09:09:16",5329.000,"cc",28317.125,6,0.100,4570.000,0.200,691.000,0.300,60.000,0.500,7.000,1.000,1.000,5.000,0
"05/11/08","09:09:22",5835.000,"cc",28296.119,6,0.100,5062.000,0.200,703.000,0.300,61.000,0.500,9.000,1.000,0,5.000,0
"05/11/08","09:09:28",5415.000,"cc",28329.928,6,0.100,4616.000,0.200,721.000,0.300,67.000,0.500,11.000,1.000,0,5.000,0
"05/11/08","09:09:34",4526.000,"cc",28288.004,6,0.100,3885.000,0.200,586.000,0.300,49.000,0.500,5.000,1.000,1.000,5.000,0
"05/11/08","09:09:40",3910.000,"cc",28292.949,6,0.100,3366.000,0.200,496.000,0.300,43.000,0.500,5.000,1.000,0,5.000,0
"05/11/08","09:09:46",4475.000,"cc",28305.898,6,0.100,3862.000,0.200,554.000,0.300,50.000,0.500,9.000,1.000,0,5.000,0
"05/11/08","09:09:52",4046.000,"cc",28354.725,6,0.100,3483.000,0.200,503.000,0.300,52.000,0.500,8.000,1.000,0,5.000,0
"05/11/08","09:09:58",3844.000,"cc",28346.674,6,0.100,3287.000,0.200,509.000,0.300,37.000,0.500,10.000,1.000,1.000,5.000,0
"05/11/08","09:10:04",3977.000,"cc",28305.365,6,0.100,3384.000,0.200,541.000,0.300,45.000,0.500,6.000,1.000,1.000,5.000,0
"05/11/08","09:10:10",3841.000,"cc",28291.459,6,0.100,3308.000,0.200,480.000,0.300,42.000,0.500,11.000,1.000,0,5.000,0
"05/11/08","09:10:16",9558.000,"cc",28293.016,6,0.100,8310.000,0.200,1134.000,0.300,98.000,0.500,16.000,1.000,0,5.000,0
"05/11/08","09:10:22",7667.000,"cc",28349.022,6,0.100,6664.000,0.200,919.000,0.300,70.000,0.500,13.000,1.000,1.000,5.000,0
"05/11/08","09:10:28",12463.000,"cc",28297.807,6,0.100,10862.000,0.200,1503.000,0.300,84.000,0.500,14.000,1.000,0,5.000,0
"05/11/08","09:10:34",13855.000,"cc",28355.332,6,0.100,12172.000,0.200,1575.000,0.300,97.000,0.500,10.000,1.000,1.000,5.000,0
"05/11/08","09:10:40",10732.000,"cc",28349.418,6,0.100,9421.000,0.200,1230.000,0.300,70.000,0.500,10.000,1.000,1.000,5.000,0
"05/11/08","09:10:46",9621.000,"cc",28311.707,6,0.100,8415.000,0.200,1145.000,0.300,47.000,0.500,14.000,1.000,0,5.000,0
"05/11/08","09:10:52",6667.000,"cc",28283.512,6,0.100,5804.000,0.200,798.000,0.300,57.000,0.500,8.000,1.000,0,5.000,0
"05/11/08","09:10:58",5337.000,"cc",28252.625,6,0.100,4590.000,0.200,697.000,0.300,39.000,0.500,10.000,1.000,1.000,5.000,0
"05/11/08","09:11:04",6034.000,"cc",28340.936,6,0.100,5210.000,0.200,753.000,0.300,62.000,0.500,7.000,1.000,2.000,5.000,0
"05/11/08","09:11:10",7751.000,"cc",28284.766,6,0.100,6770.000,0.200,917.000,0.300,56.000,0.500,8.000,1.000,0,5.000,0
"05/11/08","09:11:16",8363.000,"cc",28384.473,6,0.100,7369.000,0.200,928.000,0.300,56.000,0.500,10.000,1.000,0,5.000,0
"05/11/08","09:11:22",9647.000,"cc",28324.518,6,0.100,8419.000,0.200,1145.000,0.300,71.000,0.500,12.000,1.000,0,5.000,0
"05/11/08","09:11:28",9579.000,"cc",28302.193,6,0.100,8376.000,0.200,1130.000,0.300,65.000,0.500,8.000,1.000,0,5.000,0
"05/11/08","09:11:34",11505.000,"cc",28340.818,6,0.100,9995.000,0.200,1415.000,0.300,77.000,0.500,16.000,1.000,2.000,5.000,0
"05/11/08","09:11:40",6857.000,"cc",28346.420,6,0.100,5952.000,0.200,836.000,0.300,61.000,0.500,8.000,1.000,0,5.000,0
"05/11/08","09:11:46",10753.000,"cc",28253.856,6,0.100,9363.000,0.200,1302.000,0.300,76.000,0.500,12.000,1.000,0,5.000,0
"05/11/08","09:11:52",9095.000,"cc",28290.008,6,0.100,7921.000,0.200,1085.000,0.300,81.000,0.500,8.000,1.000,0,5.000,0
"05/11/08","09:11:58",6054.000,"cc",28344.647,6,0.100,5256.000,0.200,725.000,0.300,63.000,0.500,10.000,1.000,0,5.000,0
"05/11/08","09:12:04",6051.000,"cc",28359.637,6,0.100,5254.000,0.200,741.000,0.300,48.000,0.500,8.000,1.000,0,5.000,0
"05/11/08","09:12:10",5951.000,"cc",28321.225,6,0.100,5139.000,0.200,744.000,0.300,57.000,0.500,11.000,1.000,0,5.000,0
"05/11/08","09:12:16",4252.000,"cc",28259.941,6,0.100,3680.000,0.200,522.000,0.300,40.000,0.500,9.000,1.000,1.000,5.000,0
"05/11/08","09:12:22",5148.000,"cc",28360.453,6,0.100,4468.000,0.200,616.000,0.300,56.000,0.500,8.000,1.000,0,5.000,0
"05/11/08","09:12:28",5262.000,"cc",28323.133,6,0.100,4554.000,0.200,655.000,0.300,47.000,0.500,6.000,1.000,0,5.000,0
"05/11/08","09:12:34",6333.000,"cc",28312.074,6,0.100,5526.000,0.200,739.000,0.300,62.000,0.500,6.000,1.000,0,5.000,0
"05/11/08","09:12:40",5662.000,"cc",28253.725,6,0.100,4948.000,0.200,656.000,0.300,49.000,0.500,8.000,1.000,1.000,5.000,0
"05/11/08","09:12:46",4758.000,"cc",28296.951,6,0.100,4115.000,0.200,573.000,0.300,66.000,0.500,4.000,1.000,0,5.000,0
"05/11/08","09:12:52",7141.000,"cc",28339.273,6,0.100,6222.000,0.200,833.000,0.300,68.000,0.500,17.000,1.000,1.000,5.000,0
"05/11/08","09:12:58",7154.000,"cc",28322.168,6,0.100,6175.000,0.200,906.000,0.300,63.000,0.500,9.000,1.000,1.000,5.000,0
"05/11/08","09:13:04",4776.000,"cc",28328.168,6,0.100,4125.000,0.200,612.000,0.300,29.000,0.500,10.000,1.000,0,5.000,0
"05/11/08","09:13:10",6425.000,"cc",28353.051,6,0.100,5642.000,0.200,730.000,0.300,46.000,0.500,7.000,1.000,0,5.000,0
"05/11/08","09:13:16",6000.000,"cc",28317.830,6,0.100,5211.000,0.200,741.000,0.300,43.000,0.500,5.000,1.000,0,5.000,0
"05/11/08","09:13:22",8499.000,"cc",28320.328,6,0.100,7487.000,0.200,954.000,0.300,50.000,0.500,8.000,1.000,0,5.000,0
"05/11/08","09:13:28",12127.000,"cc",28297.744,6,0.100,10648.000,0.200,1397.000,0.300,75.000,0.500,7.000,1.000,0,5.000,0
"05/11/08","09:13:34",11418.000,"cc",28352.516,6,0.100,10095.000,0.200,1261.000,0.300,57.000,0.500,5.000,1.000,0,5.000,0
"05/11/08","09:13:40",17360.000,"cc",28285.807,6,0.100,15232.000,0.200,2031.000,0.300,87.000,0.500,10.000,1.000,0,5.000,0
"05/11/08","09:13:46",13390.000,"cc",28328.691,6,0.100,11788.000,0.200,1526.000,0.300,69.000,0.500,7.000,1.000,0,5.000,0
"05/11/08","09:13:52",12406.000,"cc",28256.650,6,0.100,10962.000,0.200,1354.000,0.300,78.000,0.500,12.000,1.000,0,5.000,0
"05/11/08","09:13:58",13232.000,"cc",28323.531,6,0.100,11622.000,0.200,1528.000,0.300,69.000,0.500,13.000,1.000,0,5.000,0
"05/11/08","09:14:04",10575.000,"cc",28371.885,6,0.100,9267.000,0.200,1226.000,0.300,72.000,0.500,9.000,1.000,1.000,5.000,0
"05/11/08","09:14:10",9368.000,"cc",28338.609,6,0.100,8233.000,0.200,1065.000,0.300,68.000,0.500,2.000,1.000,0,5.000,0
"05/11/08","09:14:16",13046.000,"cc",28297.498,6,0.100,11469.000,0.200,1487.000,0.300,77.000,0.500,13.000,1.000,0,5.000,0
"05/11/08","09:14:22",8432.000,"cc",28293.262,6,0.100,7375.000,0.200,1000.000,0.300,50.000,0.500,6.000,1.000,1.000,5.000,0
"05/11/08","09:14:28",7138.000,"cc",28284.266,6,0.100,6206.000,0.200,860.000,0.300,62.000,0.500,10.000,1.000,0,5.000,0
"05/11/08","09:14:34",7359.000,"cc",28316.059,6,0.100,6337.000,0.200,934.000,0.300,76.000,0.500,12.000,1.000,0,5.000,0
"05/11/08","09:14:40",8391.000,"cc",28295.838,6,0.100,7315.000,0.200,988.000,0.300,75.000,0.500,12.000,1.000,1.000,5.000,0
"05/11/08","09:14:46",5903.000,"cc",28324.877,6,0.100,5148.000,0.200,686.000,0.300,52.000,0.500,14.000,1.000,3.000,5.000,0
"05/11/08","09:14:52",8592.000,"cc",28287.430,6,0.100,7497.000,0.200,1019.000,0.300,65.000,0.500,11.000,1.000,0,5.000,0
"05/11/08","09:14:58",10557.000,"cc",28279.398,6,0.100,9196.000,0.200,1275.000,0.300,76.000,0.500,10.000,1.000,0,5.000,0
"05/11/08","09:15:04",5998.000,"cc",28306.834,6,0.100,5151.000,0.200,780.000,0.300,55.000,0.500,12.000,1.000,0,5.000,0
"05/11/08","09:15:10",6693.000,"cc",28316.293,6,0.100,5873.000,0.200,757.000,0.300,54.000,0.500,9.000,1.000,0,5.000,0
"05/11/08","09:15:16",4539.000,"cc",28385.906,6,0.100,3947.000,0.200,548.000,0.300,38.000,0.500,6.000,1.000,0,5.000,0
"05/11/08","09:15:22",3921.000,"cc",28300.211,6,0.100,3395.000,0.200,468.000,0.300,47.000,0.500,11.000,1.000,0,5.000,0
"05/11/08","09:15:28",5628.000,"cc",28305.565,6,0.100,4915.000,0.200,645.000,0.300,58.000,0.500,10.000,1.000,0,5.000,0
"05/11/08","09:15:34",6020.000,"cc",28297.217,6,0.100,5234.000,0.200,714.000,0.300,63.000,0.500,9.000,1.000,0,5.000,0
"05/11/08","09:15:40",5714.000,"cc",28339.947,6,0.100,4905.000,0.200,739.000,0.300,66.000,0.500,3.000,1.000,1.000,5.000,0
"05/11/08","09:15:46",5228.000,"cc",28367.309,6,0.100,4526.000,0.200,651.000,0.300,36.000,0.500,12.000,1.000,3.000,5.000,0
"05/11/08","09:15:52",5290.000,"cc",28334.576,6,0.100,4567.000,0.200,654.000,0.300,53.000,0.500,16.000,1.000,0,5.000,0
"05/11/08","09:15:58",5391.000,"cc",28283.582,6,0.100,4659.000,0.200,676.000,0.300,47.000,0.500,9.000,1.000,0,5.000,0
"05/11/08","09:16:04",4862.000,"cc",28295.014,6,0.100,4158.000,0.200,626.000,0.300,65.000,0.500,10.000,1.000,3.000,5.000,0
"05/11/08","09:16:10",3918.000,"cc",28330.977,6,0.100,3352.000,0.200,504.000,0.300,52.000,0.500,10.000,1.000,0,5.000,0
"05/11/08","09:16:16",5004.000,"cc",28302.885,6,0.100,4300.000,0.200,637.000,0.300,58.000,0.500,9.000,1.000,0,5.000,0
"05/11/08","09:16:22",2997.000,"cc",28327.436,6,0.100,2590.000,0.200,361.000,0.300,37.000,0.500,8.000,1.000,1.000,5.000,0
"05/11/08","09:16:28",3735.000,"cc",28286.147,6,0.100,3235.000,0.200,448.000,0.300,45.000,0.500,7.000,1.000,0,5.000,0
"05/11/08","09:16:34",3550.000,"cc",28345.738,6,0.100,3029.000,0.200,451.000,0.300,56.000,0.500,12.000,1.000,2.000,5.000,0
"05/11/08","09:16:40",3355.000,"cc",28321.406,6,0.100,2878.000,0.200,425.000,0.300,46.000,0.500,6.000,1.000,0,5.000,0
"05/11/08","09:16:46",4650.000,"cc",28325.977,6,0.100,4023.000,0.200,561.000,0.300,54.000,0.500,11.000,1.000,1.000,5.000,0
"05/11/08","09:16:52",4525.000,"cc",28281.436,6,0.100,3935.000,0.200,530.000,0.300,54.000,0.500,6.000,1.000,0,5.000,0
"05/11/08","09:16:58",3511.000,"cc",28355.951,6,0.100,3009.000,0.200,461.000,0.300,34.000,0.500,6.000,1.000,1.000,5.000,0
"05/11/08","09:17:04",5536.000,"cc",28266.602,6,0.100,4795.000,0.200,680.000,0.300,54.000,0.500,7.000,1.000,0,5.000,0
"05/11/08","09:17:10",6393.000,"cc",28324.479,6,0.100,5546.000,0.200,768.000,0.300,66.000,0.500,13.000,1.000,0,5.000,0
"05/11/08","09:17:16",5101.000,"cc",28335.391,6,0.100,4409.000,0.200,630.000,0.300,52.000,0.500,10.000,1.000,0,5.000,0
"05/11/08","09:17:22",4729.000,"cc",28299.990,6,0.100,4128.000,0.200,552.000,0.300,41.000,0.500,8.000,1.000,0,5.000,0
"05/11/08","09:17:28",5713.000,"cc",28261.813,6,0.100,4969.000,0.200,670.000,0.300,58.000,0.500,15.000,1.000,1.000,5.000,0
"05/11/08","09:17:34",5567.000,"cc",28288.158,6,0.100,4841.000,0.200,667.000,0.300,48.000,0.500,11.000,1.000,0,5.000,0
"05/11/08","09:17:40",6358.000,"cc",28331.572,6,0.100,5539.000,0.200,741.000,0.300,64.000,0.500,14.000,1.000,0,5.000,0
"05/11/08","09:17:46",5795.000,"cc",28360.602,6,0.100,5056.000,0.200,690.000,0.300,43.000,0.500,6.000,1.000,0,5.000,0
"05/11/08","09:17:52",9803.000,"cc",28293.588,6,0.100,8565.000,0.200,1151.000,0.300,80.000,0.500,6.000,1.000,1.000,5.000,0
"05/11/08","09:17:58",7034.000,"cc",28370.742,6,0.100,6136.000,0.200,817.000,0.300,68.000,0.500,13.000,1.000,0,5.000,0
"05/11/08","09:18:04",6545.000,"cc",28328.004,6,0.100,5702.000,0.200,772.000,0.300,56.000,0.500,15.000,1.000,0,5.000,0
"05/11/08","09:18:10",9728.000,"cc",28297.875,6,0.100,8486.000,0.200,1158.000,0.300,72.000,0.500,11.000,1.000,1.000,5.000,0
"05/11/08","09:18:16",11097.000,"cc",28304.525,6,0.100,9731.000,0.200,1255.000,0.300,93.000,0.500,18.000,1.000,0,5.000,0
"05/11/08","09:18:22",9263.000,"cc",28278.326,6,0.100,8115.000,0.200,1063.000,0.300,73.000,0.500,12.000,1.000,0,5.000,0
"05/11/08","09:18:28",6843.000,"cc",28319.115,6,0.100,6017.000,0.200,763.000,0.300,52.000,0.500,11.000,1.000,0,5.000,0
"05/11/08","09:18:34",5570.000,"cc",28315.945,6,0.100,4888.000,0.200,634.000,0.300,41.000,0.500,7.000,1.000,0,5.000,0
"05/11/08","09:18:40",7948.000,"cc",28340.850,6,0.100,6998.000,0.200,889.000,0.300,52.000,0.500,9.000,1.000,0,5.000,0